Temp_Advection
nan nan nan nan nan nan nan nan nan nan nan nan nan nan nan nan nan nan nan nan nan nan nan nan nan nan nan nan nan nan nan nan nan nan nan nan nan nan nan nan nan nan nan
nan -0 -0 -0 -0 -0 -0 -0 -0 -0 -0 -0 -0 -0 -0 -0 -0 -0 -0 -0 0 0 0 0 0 -0 -0 -0 -0 -0 -0 -0 -0 -1 -0 -0 -0 -0 -0 -0 -1 -1 nan
nan -0 -0 -0 -0 -0 -0 -0 -0 -0 -0 -0 -0 -0 -0 -0 -0 -0 -0 -0 0 -0 -0 0 -0 -0 -0 -0 -0 -0 -0 -0 -0 -0 -0 -0 -0 -0 -0 -0 -0 -0 nan
nan -0 -0 -0 -0 -0 -0 -0 -0 -0 -0 -0 -0 -0 -0 -0 -0 -0 -0 0 0 0 0 0 -0 -0 -0 -0 -0 -0 -0 -0 -0 -0 -0 -0 -0 -0 -0 -0 -0 -0 nan
nan -0 -0 -0 -0 -0 -0 -0 0 -0 -0 -0 -0 -0 -0 -0 -0 -0 -0 -0 0 0 0 0 -0 -0 -0 -0 -0 -0 -0 -0 -0 -0 -0 -0 -0 -0 -0 -0 -0 -0 nan
nan -0 -0 -0 -0 -0 -0 -0 -0 0 0 0 0 0 0 -0 -0 -0 -0 -0 0 0 0 -0 -0 -0 -0 -0 -0 -0 -0 -0 -0 -0 -0 -0 -0 -0 -0 0 -0 0 nan
nan -0 -0 -0 -0 -0 -0 -0 -0 -0 0 0 0 0 0 0 -0 -0 0 -0 0 0 0 -0 -0 -0 0 0 0 0 0 0 0 0 -0 -0 -0 -0 -0 0 0 -0 nan
nan -0 -0 -0 -0 -0 -0 -0 -0 -0 0 0 0 0 -0 0 0 0 0 -0 -0 0 -0 -0 0 0 0 0 0 0 0 0 0 0 0 0 -0 -0 0 0 0 0 nan
nan -0 -0 0 -0 -0 -0 -0 -0 -0 -0 -0 0 0 0 0 0 1 0 -0 -0 -0 -0 -0 0 0 0 0 0 0 0 0 0 0 0 0 0 0 0 0 0 0 nan
nan -0 -0 -0 -0 -0 -0 -0 -0 -0 -0 0 0 0 0 0 0 1 0 0 -0 -0 -0 -0 0 1 0 0 0 0 0 0 0 0 0 0 0 0 0 0 0 0 nan
nan -0 0 0 -0 0 0 -0 -0 0 0 -0 -0 -0 -0 -0 0 0 0 0 0 -0 -0 0 0 0 0 0 0 0 0 0 -0 0 0 -0 0 0 0 1 0 0 nan
nan 0 0 -0 -0 0 -0 -0 -0 -0 -0 -0 -1 -0 -0 -0 -0 0 0 0 0 0 1 1 0 0 0 0 0 0 0 -0 -0 0 -0 0 0 0 0 0 0 1 nan
nan -0 -1 -0 0 -0 -0 -0 -0 -0 -1 -1 -1 -0 -0 -0 0 1 0 0 0 1 1 1 0 0 -0 -0 0 0 0 -0 -0 -0 -0 0 0 0 0 0 0 0 nan
nan -1 -0 0 -0 -0 -0 -0 0 -0 -0 0 -0 -1 -0 1 1 0 -0 0 0 0 0 0 0 -0 -0 0 -0 -0 -0 -0 -0 0 0 0 0 0 0 0 0 0 nan
nan -0 0 -0 -0 0 -0 -0 0 0 0 0 -0 0 1 1 0 0 0 0 0 0 -0 0 0 -0 -1 -0 -0 -0 0 -0 -0 0 0 0 0 0 0 0 0 0 nan
nan 0 0 -0 -0 -0 -0 -0 0 -0 -0 0 0 1 0 0 0 1 1 0 0 -0 -0 -0 -1 -1 -1 -0 -0 -0 -0 -0 -0 0 0 -0 0 0 0 0 -0 -0 nan
nan 0 0 0 0 -0 -0 -0 0 0 -0 -0 -0 0 0 1 1 1 0 -0 -0 -1 -1 -0 -0 -0 0 0 0 0 0 0 -0 0 -0 -0 0 0 0 0 0 0 nan
nan -0 -0 -0 -0 -0 -0 -0 0 -0 -0 0 0 0 0 1 0 0 -0 -1 -1 -1 -1 -0 -0 0 0 1 0 1 1 -0 -0 0 -0 -0 0 0 0 0 1 0 nan
nan 0 -0 -0 -0 -0 -0 -0 -0 -0 0 0 0 0 0 -0 -0 -0 -1 -1 -1 -0 0 0 0 1 0 1 1 1 1 0 -0 -0 0 0 0 0 0 0 0 0 nan
nan -0 -0 -0 -0 -0 -0 -0 -0 -0 0 0 0 0 -0 -1 0 -0 -0 -0 -0 0 0 0 1 1 0 0 0 0 0 0 0 -0 0 1 1 0 0 0 0 0 nan
nan 0 -0 -0 -0 -0 -0 0 -0 -0 0 0 0 0 -0 -0 -0 -0 0 -0 -0 0 0 0 0 0 0 0 0 0 0 0 0 0 0 0 0 1 0 -0 -0 0 nan
nan 0 -0 -0 -0 -0 -0 -0 -0 -0 -0 -0 -0 0 -0 -0 -0 0 0 -0 -0 0 0 0 0 0 0 0 0 0 0 0 0 0 0 0 0 0 -0 -0 -0 -1 nan
nan -0 -0 -0 -0 -0 -0 -0 -0 -0 -0 -0 -0 0 -0 -0 -0 -0 0 0 0 0 0 0 0 0 0 0 0 0 0 0 0 0 0 0 0 -0 0 -0 0 0 nan
nan -0 -0 0 -0 -0 -0 -0 -0 -0 -0 -0 -0 -0 -0 -0 -0 -0 0 0 0 0 0 0 0 0 0 0 0 0 0 1 0 0 0 0 0 0 0 0 0 -0 nan
nan 0 0 0 0 0 0 0 0 0 0 -0 -0 -0 -0 -0 -0 -0 0 0 0 0 0 0 0 0 0 0 0 0 0 0 0 0 0 0 0 0 0 0 0 0 nan
nan nan nan nan nan nan nan nan nan nan nan nan nan nan nan nan nan nan nan nan nan nan nan nan nan nan nan nan nan nan nan nan nan nan nan nan nan nan nan nan nan nan nan
Wind_Speed
9 10 10 11 12 12 13 14 14 15 16 17 18 18 18 19 19 20 21 21 21 18 16 17 16 17 14 15 17 16 14 14 18 20 21 20 20 17 12 13 15 16 18
9 9 9 11 12 13 13 14 15 15 16 17 17 18 18 18 19 23 23 22 19 18 18 17 17 15 18 16 18 16 13 13 15 20 19 19 17 14 11 9 11 13 15
8 8 9 11 12 13 14 15 16 16 16 16 17 18 19 18 20 25 23 20 17 16 17 16 17 16 17 18 20 14 12 12 13 15 18 16 15 12 7 6 7 9 11
7 7 9 11 12 13 13 15 16 16 15 16 17 18 18 17 21 25 24 18 17 16 16 15 16 17 17 18 19 13 13 12 12 13 14 14 13 10 4 3 3 6 9
6 7 9 11 12 13 14 15 16 16 16 17 17 18 19 17 23 28 24 17 17 17 16 16 15 17 17 18 18 13 11 10 11 11 12 12 13 12 6 2 1 2 5
6 7 9 11 12 14 15 16 16 16 17 17 18 19 19 18 26 28 22 17 17 17 17 17 17 18 20 19 15 9 9 8 8 10 11 13 12 11 6 1 5 4 2
6 7 9 11 13 14 15 16 17 17 17 17 18 19 19 19 26 28 20 17 17 16 17 18 20 20 21 20 14 11 9 7 7 7 11 12 12 8 4 3 3 5 9
6 7 10 11 13 15 15 17 18 17 17 17 18 19 20 20 27 29 22 18 17 16 17 18 20 20 21 19 15 11 9 6 4 7 8 9 10 5 2 4 7 10 12
6 6 8 10 11 13 15 17 17 17 16 16 17 18 20 20 28 28 26 19 18 17 17 17 22 21 21 20 16 14 10 7 6 8 7 7 11 5 5 6 6 10 12
5 6 7 10 11 13 15 16 17 16 16 16 17 17 21 21 25 27 28 20 18 17 17 17 20 21 20 20 18 16 12 9 8 9 8 11 14 12 8 8 10 10 14
5 6 8 10 11 12 14 15 16 16 16 16 17 17 19 22 23 24 26 24 21 17 18 19 21 21 20 19 18 17 15 11 11 10 11 14 16 17 17 13 9 12 11
5 7 9 11 11 12 14 15 16 16 16 17 18 18 20 21 23 24 23 23 21 18 19 20 20 20 20 20 19 16 15 17 17 17 15 16 17 16 19 22 18 15 15
5 7 10 10 11 14 14 16 16 17 16 17 19 20 22 23 24 24 23 21 19 19 19 19 20 22 23 22 21 22 21 20 21 21 20 19 15 14 18 20 23 23 24
8 9 8 10 11 13 15 15 17 19 18 18 19 20 21 23 27 26 25 22 19 19 20 20 22 24 25 26 26 25 24 24 23 21 20 18 18 17 19 19 23 24 27
6 6 7 9 11 11 15 20 19 21 22 22 22 18 24 26 28 25 23 21 20 20 20 22 25 27 29 30 29 27 26 24 25 23 21 20 21 21 19 19 20 21 25
5 6 8 8 10 10 10 11 19 20 21 22 23 23 22 22 22 23 23 22 19 21 21 25 27 28 28 29 29 28 27 27 26 23 21 21 21 21 23 21 19 18 19
5 6 8 9 10 11 11 10 11 16 20 21 22 23 23 23 22 22 23 27 26 24 26 27 27 27 27 27 27 27 27 26 25 23 21 21 20 20 22 26 23 23 23
7 8 8 9 10 11 12 13 13 14 14 17 20 21 23 25 25 25 27 28 28 29 28 27 27 26 27 27 27 27 26 26 27 25 23 22 21 21 23 23 24 23 22
7 7 8 9 9 10 11 11 12 12 14 15 17 18 21 25 27 28 29 32 30 28 28 28 27 27 27 27 27 27 27 28 28 26 26 24 22 22 21 23 24 24 22
6 7 7 7 8 9 10 10 11 12 13 14 19 22 21 22 27 30 31 31 31 30 29 29 29 29 29 28 26 26 26 27 29 28 28 26 25 24 24 23 24 23 23
6 5 6 6 6 7 8 9 10 11 13 14 17 19 20 23 24 26 29 30 30 30 30 30 30 31 31 31 30 28 26 26 26 28 28 29 28 28 27 24 24 22 21
5 4 4 4 5 5 6 7 9 10 11 13 14 16 18 21 22 24 26 27 28 28 27 28 29 31 32 32 33 31 30 28 26 26 26 26 27 28 28 27 26 28 26
5 4 3 2 3 3 5 6 7 8 9 10 12 14 16 17 19 20 22 23 25 25 26 26 26 27 28 29 30 31 31 31 30 26 24 24 25 27 28 28 29 29 28
5 3 2 1 1 1 2 4 5 5 6 8 9 11 13 14 16 17 18 19 21 22 23 24 25 25 25 25 25 26 27 27 28 28 27 25 24 24 25 25 26 26 26
6 5 3 3 2 1 1 2 3 4 5 6 7 8 9 11 12 13 14 16 17 18 19 21 22 23 23 24 24 24 24 24 23 25 25 26 26 26 26 26 26 25 24
7 6 5 4 4 3 2 2 3 4 4 5 5 6 6 8 9 10 11 12 13 15 16 17 18 19 20 21 22 22 22 22 22 22 23 22 22 23 23 23 23 24 24
Wind_Direction
4 0 356 353 352 350 350 348 347 347 346 346 348 351 350 347 343 342 340 332 330 327 328 327 329 329 323 318 318 309 297 295 300 310 314 317 315 307 287 269 254 253 259
3 2 357 357 356 356 355 350 349 348 348 348 350 352 352 347 345 345 341 334 332 330 331 332 332 330 332 327 323 312 302 298 303 309 318 321 318 311 297 274 254 244 250
4 4 2 359 360 359 356 352 352 351 352 351 354 355 351 348 349 345 342 339 335 335 332 332 333 330 328 330 330 319 310 304 306 311 319 325 324 322 299 291 266 238 247
8 7 6 360 1 1 358 355 352 353 353 354 357 356 351 352 349 348 345 345 341 337 338 335 332 332 328 335 332 325 316 310 311 316 318 326 341 338 331 288 299 240 239
13 11 6 0 1 3 0 357 355 356 355 356 359 356 355 359 352 351 348 350 345 343 344 342 336 337 338 346 331 321 320 314 317 321 324 333 340 351 342 302 225 215 233
18 14 4 4 2 3 360 359 359 359 357 357 1 355 358 356 357 353 354 356 347 346 346 346 342 345 345 350 341 339 330 319 319 325 327 334 337 341 337 3 175 154 124
25 17 10 6 4 3 359 359 1 360 359 360 0 357 358 352 360 357 10 359 353 349 349 349 354 351 353 355 353 358 348 340 330 339 331 337 336 337 356 14 166 183 150
27 20 13 10 5 1 359 0 2 2 0 0 1 359 359 352 358 1 15 0 0 357 357 356 1 360 2 6 7 8 7 3 1 1 351 352 348 346 41 132 134 137 132
35 24 13 11 4 3 3 5 5 4 2 3 3 1 360 357 359 5 13 5 9 7 3 2 6 9 11 16 21 20 18 26 41 37 33 30 38 26 119 110 126 141 128
43 24 14 15 6 6 7 8 8 8 6 6 5 3 1 0 357 10 12 8 13 9 8 7 10 18 18 21 28 29 29 36 42 43 51 52 47 58 92 136 133 143 140
41 30 24 21 13 12 12 12 13 14 13 13 11 7 7 1 5 14 16 18 15 7 8 12 18 23 25 28 33 36 38 47 48 46 52 49 46 54 74 89 127 143 148
49 38 33 30 26 20 20 19 20 19 20 18 17 14 11 8 5 16 21 19 18 17 17 22 29 30 34 37 41 46 55 62 57 55 54 52 45 49 77 80 82 102 111
59 47 47 33 31 30 30 28 26 27 26 22 20 14 12 8 11 17 26 23 23 32 34 35 40 43 46 47 50 53 57 59 55 55 46 45 46 66 86 80 86 93 100
61 50 43 38 43 39 37 36 34 33 29 22 20 14 12 10 16 20 20 24 31 37 40 42 46 45 43 47 47 47 52 54 53 53 48 47 60 80 88 79 82 83 86
67 56 48 46 45 42 40 46 41 36 34 31 29 19 18 20 21 22 22 21 30 39 38 39 44 43 41 44 45 46 49 53 52 50 55 53 60 70 74 83 85 89 88
77 64 68 53 48 47 47 35 43 41 39 37 35 34 35 28 25 26 32 38 42 47 44 42 40 38 36 37 41 43 46 51 49 47 54 60 60 67 74 74 74 75 82
94 84 68 65 59 56 51 49 42 32 40 40 37 38 38 37 35 34 40 46 48 52 48 44 40 37 36 37 41 43 42 48 53 47 49 55 58 60 75 74 70 72 69
99 89 82 73 65 59 54 51 46 42 36 33 38 40 42 44 43 43 47 48 46 48 46 43 41 38 38 39 41 44 46 50 53 50 52 56 57 62 62 72 71 70 71
109 101 89 80 72 68 61 55 52 47 45 41 42 44 47 47 46 47 48 48 43 42 42 42 42 42 42 44 45 48 49 51 52 54 56 55 57 61 69 72 69 72 75
114 104 97 87 75 68 63 57 53 49 46 42 41 40 41 40 43 44 46 48 47 45 45 43 44 45 45 45 47 48 51 53 55 53 56 59 57 64 65 68 71 70 72
121 111 100 90 81 75 68 59 55 51 48 45 43 40 39 46 43 44 46 47 48 47 47 47 48 49 50 49 50 50 52 52 54 57 56 60 62 65 65 66 71 69 70
134 125 111 100 88 77 71 62 55 51 47 46 45 43 42 46 47 47 47 49 49 49 49 51 50 51 52 52 53 52 53 55 56 61 61 64 66 68 70 72 75 81 71
153 145 132 119 97 81 69 60 51 49 44 42 43 42 43 43 45 46 47 48 50 50 49 51 52 52 51 53 53 53 53 55 58 61 66 68 71 74 74 75 76 74 79
177 174 178 188 134 79 60 53 42 37 37 37 40 41 40 41 41 43 45 47 48 49 48 50 51 51 52 51 52 53 54 55 60 64 67 71 74 76 78 78 78 81 84
195 198 213 229 245 267 356 28 22 16 17 21 27 35 35 37 38 39 40 43 46 48 49 50 51 52 53 52 52 53 54 57 59 65 68 71 76 78 79 79 79 79 80
215 223 227 235 251 267 285 312 344 344 351 357 4 15 25 29 31 33 35 37 41 44 47 48 49 50 52 54 53 55 56 58 60 63 68 71 72 75 77 78 80 81 82
Height
1550 1549 1547 1544 1541 1539 1536 1532 1528 1523 1519 1514 1509 1504 1500 1496 1492 1487 1482 1477 1472 1468 1464 1460 1456 1453 1449 1446 1442 1439 1435 1432 1428 1421 1417 1411 1407 1402 1399 1397 1394 1395 1394
1549 1548 1547 1544 1540 1538 1534 1531 1526 1522 1517 1513 1508 1503 1499 1495 1490 1486 1480 1475 1470 1466 1462 1457 1454 1450 1446 1443 1439 1434 1431 1429 1426 1420 1415 1409 1405 1400 1397 1394 1393 1391 1392
1549 1548 1546 1544 1540 1537 1533 1530 1526 1521 1517 1513 1507 1502 1498 1493 1489 1484 1478 1473 1469 1465 1460 1456 1452 1448 1444 1439 1435 1431 1428 1425 1423 1419 1413 1408 1403 1399 1395 1393 1391 1391 1390
1548 1547 1545 1544 1540 1536 1533 1529 1525 1521 1516 1512 1506 1502 1497 1493 1489 1482 1476 1472 1468 1463 1459 1455 1451 1446 1441 1436 1432 1428 1425 1422 1420 1417 1412 1408 1403 1399 1396 1395 1392 1390 1389
1549 1547 1545 1543 1540 1536 1534 1530 1526 1521 1517 1511 1506 1501 1496 1493 1488 1481 1474 1471 1467 1462 1458 1454 1449 1443 1439 1434 1429 1425 1422 1419 1417 1415 1411 1407 1403 1399 1397 1395 1394 1392 1391
1548 1547 1546 1544 1541 1537 1535 1530 1526 1522 1517 1512 1507 1502 1497 1493 1487 1481 1473 1471 1467 1462 1457 1452 1446 1441 1436 1430 1426 1422 1419 1417 1415 1413 1410 1407 1403 1400 1397 1395 1395 1394 1394
1549 1547 1546 1544 1542 1538 1536 1531 1526 1521 1517 1514 1509 1503 1498 1494 1486 1480 1473 1471 1467 1462 1457 1451 1445 1440 1434 1428 1424 1421 1418 1415 1413 1411 1409 1407 1403 1400 1397 1396 1395 1395 1395
1549 1548 1546 1544 1543 1540 1536 1531 1526 1522 1518 1515 1510 1505 1500 1494 1486 1479 1473 1471 1467 1462 1457 1451 1445 1439 1434 1428 1424 1421 1418 1415 1412 1410 1408 1406 1403 1399 1397 1396 1396 1396 1396
1549 1548 1545 1542 1540 1537 1534 1529 1526 1522 1520 1516 1512 1507 1501 1495 1487 1480 1474 1471 1468 1464 1458 1453 1446 1440 1434 1429 1424 1421 1418 1415 1413 1411 1409 1406 1403 1400 1398 1398 1398 1399 1399
1548 1546 1545 1542 1542 1538 1535 1530 1526 1523 1521 1517 1514 1508 1503 1497 1490 1482 1476 1472 1469 1465 1459 1453 1448 1441 1437 1431 1426 1422 1419 1416 1413 1412 1410 1408 1405 1402 1400 1399 1398 1401 1402
1547 1547 1546 1544 1542 1539 1536 1532 1528 1525 1522 1519 1516 1510 1505 1499 1492 1485 1479 1473 1469 1466 1460 1454 1449 1444 1439 1434 1429 1424 1420 1417 1416 1414 1411 1409 1407 1405 1403 1402 1401 1402 1404
1548 1548 1546 1544 1542 1540 1537 1533 1530 1527 1524 1521 1516 1511 1506 1500 1494 1487 1482 1477 1472 1467 1462 1457 1452 1448 1442 1437 1432 1428 1424 1420 1418 1416 1415 1412 1411 1410 1408 1407 1406 1405 1405
1548 1548 1546 1545 1543 1541 1538 1535 1532 1529 1526 1522 1518 1513 1508 1502 1496 1490 1485 1480 1475 1470 1466 1461 1457 1452 1446 1442 1437 1432 1428 1424 1422 1420 1419 1417 1416 1414 1413 1412 1412 1410 1407
1550 1551 1550 1548 1546 1543 1540 1537 1534 1530 1527 1524 1520 1517 1511 1505 1498 1492 1487 1482 1478 1473 1469 1465 1460 1456 1451 1447 1442 1437 1434 1430 1428 1427 1425 1423 1421 1418 1417 1416 1417 1416 1415
1553 1553 1552 1550 1548 1546 1543 1539 1537 1534 1530 1526 1522 1519 1513 1508 1502 1497 1491 1486 1481 1477 1472 1469 1464 1459 1455 1451 1447 1443 1439 1436 1432 1431 1430 1427 1426 1425 1423 1422 1421 1422 1422
1555 1554 1552 1552 1550 1549 1547 1544 1541 1538 1535 1531 1527 1523 1518 1514 1508 1503 1496 1491 1485 1480 1477 1472 1468 1464 1460 1457 1453 1450 1446 1442 1438 1436 1434 1432 1430 1430 1429 1429 1428 1427 1427
1556 1555 1554 1553 1552 1551 1549 1547 1545 1541 1538 1535 1532 1527 1523 1518 1513 1507 1501 1494 1490 1485 1481 1477 1473 1469 1466 1463 1460 1457 1454 1451 1447 1443 1439 1438 1436 1435 1433 1432 1433 1433 1432
1556 1556 1555 1554 1554 1553 1551 1549 1547 1545 1543 1540 1536 1532 1528 1523 1518 1512 1505 1500 1495 1490 1486 1483 1479 1476 1472 1469 1466 1463 1461 1458 1455 1452 1447 1445 1444 1442 1440 1439 1438 1439 1439
1558 1557 1557 1556 1556 1555 1553 1552 1550 1548 1546 1543 1540 1537 1532 1527 1522 1517 1511 1505 1500 1496 1492 1489 1486 1482 1479 1475 1472 1469 1466 1463 1460 1459 1457 1454 1452 1450 1448 1447 1447 1445 1444
1559 1559 1558 1558 1558 1557 1555 1554 1553 1551 1549 1546 1543 1539 1535 1531 1526 1521 1517 1512 1507 1504 1499 1496 1492 1489 1485 1482 1478 1475 1473 1470 1467 1464 1463 1461 1457 1456 1455 1453 1452 1453 1454
1560 1561 1560 1560 1559 1558 1557 1556 1555 1553 1551 1549 1546 1543 1540 1536 1532 1528 1524 1519 1515 1511 1507 1503 1499 1496 1492 1489 1485 1482 1479 1476 1473 1470 1468 1466 1465 1463 1459 1459 1460 1460 1459
1561 1562 1562 1561 1561 1560 1559 1558 1556 1555 1553 1552 1549 1547 1544 1540 1537 1534 1530 1526 1522 1518 1515 1511 1507 1503 1500 1497 1493 1490 1487 1483 1480 1477 1476 1474 1472 1470 1470 1470 1469 1467 1467
1562 1562 1563 1563 1562 1561 1560 1559 1558 1557 1555 1554 1552 1549 1547 1544 1542 1539 1536 1532 1529 1525 1522 1518 1514 1511 1508 1504 1501 1498 1495 1491 1488 1486 1484 1482 1481 1480 1479 1477 1476 1474 1473
1562 1563 1563 1563 1563 1562 1561 1560 1559 1558 1557 1555 1553 1551 1550 1547 1545 1543 1540 1537 1534 1531 1528 1524 1520 1517 1515 1512 1509 1506 1503 1500 1497 1495 1493 1491 1489 1488 1487 1486 1486 1486 1486
1561 1562 1563 1563 1563 1562 1561 1560 1560 1559 1558 1556 1555 1553 1551 1550 1548 1546 1544 1542 1539 1536 1533 1530 1527 1524 1521 1518 1515 1512 1510 1507 1505 1502 1500 1499 1498 1496 1495 1493 1492 1492 1491
1561 1562 1562 1562 1562 1562 1561 1560 1560 1559 1558 1557 1556 1554 1552 1551 1550 1548 1546 1545 1542 1540 1538 1535 1532 1530 1527 1525 1522 1519 1517 1514 1512 1509 1507 1506 1504 1502 1501 1500 1499 1498 1497